| time (UTC) | temp C | wind direction | speed KPH | gust KPH | rain 1hr cm | rain 24hr cm | rain mn cm | humidity % | barometer mb |
| 20260508045536 | 9 | 0.0 | 0.0 | 0.00 | 0.03 | 0.00 | 87 | 1017.5 | |
| 20260508044517 | 9 | 0.0 | 0.0 | 0.00 | 0.03 | 0.00 | 87 | 1017.5 | |
| 20260508043536 | 9 | 0.0 | 0.0 | 0.00 | 0.03 | 0.00 | 86 | 1017.5 | |
| 20260508042536 | 9 | 0.0 | 0.0 | 0.00 | 0.03 | 0.00 | 86 | 1017.7 | |
| 20260508041516 | 9 | 0.0 | 0.0 | 0.00 | 0.03 | 0.00 | 86 | 1017.5 | |
| 20260508040516 | 9 | 0.0 | 4.8 | 0.00 | 0.03 | 0.00 | 85 | 1017.5 | |
| 20260508035516 | 10 | 158 | 1.6 | 4.8 | 0.00 | 0.03 | 0.00 | 85 | 1017.4 |
| 20260508034516 | 10 | 0.0 | 4.8 | 0.00 | 0.03 | 0.00 | 84 | 1017.5 | |
| 20260508033516 | 10 | 0.0 | 4.8 | 0.00 | 0.03 | 0.00 | 84 | 1017.5 | |
| 20260508032516 | 10 | 158 | 1.6 | 6.4 | 0.00 | 0.03 | 0.00 | 84 | 1017.4 |
| 20260508031516 | 10 | 0.0 | 3.2 | 0.00 | 0.03 | 0.00 | 84 | 1017.6 | |
| 20260508030536 | 10 | 0.0 | 3.2 | 0.00 | 0.03 | 0.00 | 84 | 1017.4 | |
| 20260508025536 | 10 | 0.0 | 4.8 | 0.00 | 0.03 | 0.00 | 84 | 1017.5 | |
| 20260508024516 | 10 | 0.0 | 3.2 | 0.00 | 0.03 | 0.00 | 84 | 1017.4 | |
| 20260508023516 | 10 | 0.0 | 6.4 | 0.00 | 0.03 | 0.00 | 84 | 1017.6 | |
| 20260508022516 | 10 | 0.0 | 6.4 | 0.00 | 0.03 | 0.00 | 84 | 1017.6 | |
| 20260508021556 | 10 | 135 | 1.6 | 6.4 | 0.00 | 0.03 | 0.00 | 83 | 1017.7 |
| 20260508020516 | 10 | 158 | 1.6 | 8.0 | 0.00 | 0.03 | 0.00 | 83 | 1017.7 |
| 20260508015516 | 10 | 180 | 1.6 | 6.4 | 0.00 | 0.03 | 0.00 | 83 | |
| 20260508014536 | 10 | 158 | 1.6 | 8.0 | 0.00 | 0.03 | 0.00 | 83 | |
| 20260508013516 | 10 | 158 | 1.6 | 3.2 | 0.00 | 0.03 | 0.00 | 83 | |
| 20260508012516 | 10 | 180 | 1.6 | 4.8 | 0.00 | 0.03 | 0.00 | 83 | |
| 20260508011516 | 10 | 158 | 3.2 | 9.7 | 0.00 | 0.03 | 0.00 | 83 | |
| 20260508010516 | 10 | 158 | 1.6 | 8.0 | 0.00 | 0.03 | 0.00 | 83 | |
| 20260508005536 | 11 | 158 | 1.6 | 4.8 | 0.00 | 0.03 | 0.00 | 82 | |
| 20260508004516 | 11 | 158 | 1.6 | 6.4 | 0.00 | 0.03 | 0.00 | 82 | |
| 20260508003516 | 11 | 158 | 3.2 | 11.3 | 0.00 | 0.03 | 0.00 | 82 | |
| 20260508002516 | 11 | 158 | 1.6 | 6.4 | 0.00 | 0.03 | 0.00 | 82 | |
| 20260508001516 | 11 | 0.0 | 3.2 | 0.00 | 0.03 | 0.00 | 81 | ||
| 20260508000516 | 11 | 158 | 3.2 | 6.4 | 0.00 | 0.03 | 0.00 | 81 | |
| 20260507235516 | 11 | 158 | 1.6 | 6.4 | 0.00 | 0.03 | 0.00 | 80 | |
| 20260507234516 | 11 | 158 | 1.6 | 4.8 | 0.00 | 0.03 | 0.00 | 79 | |
| 20260507233516 | 11 | 158 | 1.6 | 4.8 | 0.00 | 0.03 | 0.00 | 80 | 1017.7 |
| 20260507232516 | 11 | 0.0 | 0.0 | 0.00 | 0.03 | 0.00 | 79 | 1017.7 | |
| 20260507231516 | 11 | 0.0 | 0.0 | 0.00 | 0.03 | 0.00 | 79 | 1017.7 | |
| 20260507230516 | 11 | 0.0 | 3.2 | 0.00 | 0.03 | 0.00 | 78 | 1017.8 | |
| 20260507225516 | 11 | 158 | 1.6 | 6.4 | 0.00 | 0.03 | 0.03 | 78 | 1017.7 |
| 20260507224516 | 11 | 180 | 3.2 | 6.4 | 0.00 | 0.03 | 0.03 | 77 | 1017.8 |
| 20260507223516 | 11 | 158 | 1.6 | 6.4 | 0.00 | 0.03 | 0.03 | 77 | 1017.9 |
| 20260507222516 | 11 | 158 | 3.2 | 9.7 | 0.00 | 0.03 | 0.03 | 76 | 1017.9 |
| 20260507221516 | 11 | 158 | 1.6 | 6.4 | 0.00 | 0.03 | 0.03 | 76 | 1017.9 |
| 20260507220516 | 11 | 158 | 1.6 | 3.2 | 0.00 | 0.03 | 0.03 | 75 | 1017.8 |
| 20260507215516 | 12 | 158 | 1.6 | 8.0 | 0.00 | 0.03 | 0.03 | 75 | 1017.7 |
| 20260507214516 | 12 | 0.0 | 3.2 | 0.00 | 0.03 | 0.03 | 74 | 1017.8 | |
| 20260507213516 | 12 | 158 | 3.2 | 6.4 | 0.00 | 0.03 | 0.03 | 74 | 1017.8 |
| 20260507212516 | 12 | 158 | 3.2 | 6.4 | 0.00 | 0.03 | 0.03 | 74 | 1017.8 |
| 20260507211516 | 12 | 158 | 1.6 | 9.7 | 0.00 | 0.03 | 0.03 | 73 | 1017.6 |
| 20260507210516 | 12 | 180 | 3.2 | 8.0 | 0.00 | 0.03 | 0.03 | 73 | 1017.6 |
| 20260507205516 | 12 | 180 | 4.8 | 9.7 | 0.00 | 0.03 | 0.03 | 72 | 1017.6 |
| 20260507204516 | 12 | 158 | 3.2 | 9.7 | 0.00 | 0.03 | 0.03 | 72 | 1017.4 |
| 20260507203616 | 12 | 135 | 1.6 | 6.4 | 0.00 | 0.03 | 0.03 | 71 | 1017.3 |
| 20260507202515 | 12 | 158 | 1.6 | 3.2 | 0.00 | 0.03 | 0.03 | 70 | 1017.1 |
| 20260507201515 | 12 | 135 | 1.6 | 4.8 | 0.00 | 0.03 | 0.03 | 69 | 1017.0 |
| 20260507200516 | 12 | 135 | 1.6 | 4.8 | 0.00 | 0.03 | 0.03 | 68 | 1017.0 |
| 20260507195516 | 12 | 135 | 1.6 | 3.2 | 0.00 | 0.03 | 0.03 | 67 | 1016.9 |
| 20260507194515 | 13 | 135 | 1.6 | 6.4 | 0.00 | 0.03 | 0.03 | 66 | 1016.7 |
| 20260507193517 | 13 | 135 | 1.6 | 4.8 | 0.00 | 0.03 | 0.03 | 66 | 1016.6 |
| 20260507192517 | 13 | 135 | 1.6 | 3.2 | 0.00 | 0.03 | 0.03 | 66 | 1016.6 |
| 20260507191515 | 13 | 158 | 1.6 | 9.7 | 0.00 | 0.03 | 0.03 | 65 | 1016.6 |
| 20260507190516 | 13 | 135 | 1.6 | 4.8 | 0.00 | 0.03 | 0.03 | 65 | 1016.6 |
| 20260507185517 | 13 | 158 | 1.6 | 4.8 | 0.00 | 0.03 | 0.03 | 65 | 1016.6 |
| 20260507184515 | 13 | 113 | 1.6 | 3.2 | 0.00 | 0.03 | 0.03 | 64 | 1016.5 |
| 20260507183515 | 13 | 90 | 1.6 | 8.0 | 0.00 | 0.03 | 0.03 | 62 | 1016.4 |
| 20260507182516 | 13 | 135 | 1.6 | 4.8 | 0.00 | 0.03 | 0.03 | 60 | 1016.4 |
| 20260507181515 | 13 | 0.0 | 3.2 | 0.00 | 0.03 | 0.03 | 60 | 1016.3 | |
| 20260507180515 | 14 | 135 | 1.6 | 4.8 | 0.00 | 0.03 | 0.03 | 59 | 1016.3 |
| 20260507175515 | 14 | 0.0 | 1.6 | 0.00 | 0.03 | 0.03 | 59 | 1016.3 | |
| 20260507174515 | 14 | 135 | 1.6 | 6.4 | 0.00 | 0.03 | 0.03 | 57 | 1016.2 |
| 20260507173515 | 15 | 90 | 1.6 | 4.8 | 0.00 | 0.03 | 0.03 | 56 | 1016.2 |
| 20260507172517 | 15 | 158 | 1.6 | 3.2 | 0.00 | 0.03 | 0.03 | 56 | 1016.2 |
| 20260507171517 | 15 | 135 | 1.6 | 4.8 | 0.00 | 0.03 | 0.03 | 55 | 1016.3 |
| 20260507170517 | 15 | 90 | 1.6 | 6.4 | 0.00 | 0.03 | 0.03 | 56 | 1016.2 |
| 20260507165537 | 15 | 113 | 1.6 | 4.8 | 0.00 | 0.03 | 0.03 | 56 | 1016.3 |
| 20260507164517 | 15 | 113 | 1.6 | 4.8 | 0.00 | 0.03 | 0.03 | 55 | 1016.3 |
| 20260507163517 | 15 | 90 | 1.6 | 4.8 | 0.00 | 0.03 | 0.03 | 54 | 1016.4 |
| 20260507162537 | 15 | 113 | 1.6 | 8.0 | 0.00 | 0.03 | 0.03 | 54 | 1016.4 |
| 20260507161517 | 15 | 113 | 1.6 | 3.2 | 0.00 | 0.03 | 0.03 | 51 | 1016.4 |
| 20260507160517 | 16 | 158 | 3.2 | 9.7 | 0.00 | 0.03 | 0.03 | 53 | 1016.4 |
| 20260507155517 | 16 | 135 | 3.2 | 11.3 | 0.00 | 0.03 | 0.03 | 52 | 1016.4 |
| 20260507154517 | 16 | 90 | 1.6 | 9.7 | 0.00 | 0.03 | 0.03 | 53 | 1016.5 |
| 20260507153537 | 15 | 135 | 1.6 | 6.4 | 0.00 | 0.03 | 0.03 | 54 | 1016.5 |
| 20260507152517 | 15 | 68 | 1.6 | 6.4 | 0.00 | 0.03 | 0.03 | 54 | 1016.5 |
| 20260507151517 | 15 | 135 | 1.6 | 6.4 | 0.00 | 0.03 | 0.03 | 52 | 1016.7 |
| 20260507150517 | 16 | 90 | 3.2 | 8.0 | 0.00 | 0.03 | 0.03 | 51 | 1016.7 |
| 20260507145517 | 16 | 135 | 1.6 | 3.2 | 0.00 | 0.03 | 0.03 | 51 | 1016.8 |
| 20260507144517 | 16 | 90 | 1.6 | 6.4 | 0.03 | 0.03 | 0.03 | 51 | 1016.9 |
| 20260507143517 | 15 | 68 | 3.2 | 8.0 | 0.03 | 0.03 | 0.03 | 51 | 1017.0 |
| 20260507142517 | 15 | 135 | 1.6 | 8.0 | 0.03 | 0.03 | 0.03 | 52 | 1017.0 |
| 20260507141557 | 15 | 90 | 1.6 | 4.8 | 0.03 | 0.03 | 0.03 | 51 | 1016.9 |
| 20260507140557 | 15 | 90 | 1.6 | 4.8 | 0.03 | 0.03 | 0.03 | 51 | 1017.1 |
| 20260507135517 | 17 | 90 | 1.6 | 4.8 | 0.03 | 0.03 | 0.03 | 49 | 1017.1 |
| 20260507134517 | -17 | 0.0 | 0.0 | 0.00 | 0.00 | 0.00 | |||
| 20260507133517 | -17 | 0.0 | 0.0 | 0.00 | 0.00 | 0.00 | |||
| 20260507132537 | -17 | 0.0 | 0.0 | 0.00 | 0.00 | 0.00 | |||
| 20260507131517 | -17 | 0.0 | 0.0 | 0.00 | 0.00 | 0.00 | |||
| 20260507130537 | -17 | 0.0 | 0.0 | 0.00 | 0.00 | 0.00 | |||
| 20260507125517 | -17 | 0.0 | 0.0 | 0.00 | 0.00 | 0.00 | |||
| 20260507124517 | -17 | 0.0 | 0.0 | 0.00 | 0.00 | 0.00 | |||
| 20260507123517 | -17 | 0.0 | 0.0 | 0.00 | 0.00 | 0.00 | |||
| 20260507122537 | -17 | 0.0 | 0.0 | 0.00 | 0.00 | 0.00 | |||
| 20260507121516 | -17 | 0.0 | 0.0 | 0.00 | 0.00 | 0.00 | |||
| 20260507120516 | -17 | 0.0 | 0.0 | 0.00 | 0.00 | 0.00 | |||
| 20260507115516 | -17 | 0.0 | 0.0 | 0.00 | 0.00 | 0.00 | |||
| 20260507114517 | -17 | 0.0 | 0.0 | 0.00 | 0.00 | 0.00 | |||
| 20260507113517 | -17 | 0.0 | 0.0 | 0.00 | 0.00 | 0.00 | |||
| 20260507112537 | -17 | 0.0 | 0.0 | 0.00 | 0.00 | 0.00 | |||
| 20260507111537 | 16 | 81 | 3.2 | 0.0 | 0.00 | 0.00 | 0.00 | 56 | 1017.7 |
| 20260507110516 | 16 | 135 | 1.6 | 3.2 | 0.00 | 0.00 | 0.00 | 56 | 1017.7 |
| 20260507105517 | 16 | 158 | 4.8 | 11.3 | 0.00 | 0.00 | 0.00 | 58 | 1017.9 |
| 20260507104537 | 16 | 90 | 1.6 | 8.0 | 0.00 | 0.00 | 0.00 | 57 | 1017.8 |
| 20260507103516 | 16 | 158 | 4.8 | 11.3 | 0.00 | 0.00 | 0.00 | 59 | 1018.0 |
| 20260507102516 | 15 | 90 | 1.6 | 4.8 | 0.00 | 0.00 | 0.00 | 60 | 1018.1 |
| 20260507101517 | 15 | 158 | 3.2 | 8.0 | 0.00 | 0.00 | 0.00 | 60 | 1018.2 |
| 20260507100516 | 15 | 158 | 3.2 | 11.3 | 0.00 | 0.00 | 0.00 | 60 | 1018.1 |
| 20260507095536 | 15 | 135 | 3.2 | 11.3 | 0.00 | 0.00 | 0.00 | 63 | 1018.2 |
| 20260507094516 | 15 | 180 | 3.2 | 8.0 | 0.00 | 0.00 | 0.00 | 66 | 1018.2 |
| 20260507093536 | 15 | 135 | 1.6 | 9.7 | 0.00 | 0.00 | 0.00 | 66 | 1018.2 |
| 20260507092516 | 14 | 180 | 3.2 | 12.9 | 0.00 | 0.00 | 0.00 | 67 | 1018.2 |
| 20260507091516 | 14 | 113 | 1.6 | 8.0 | 0.00 | 0.00 | 0.00 | 69 | 1018.2 |
| 20260507090516 | 13 | 158 | 4.8 | 11.3 | 0.00 | 0.00 | 0.00 | 70 | 1018.2 |
| 20260507085516 | 13 | 135 | 1.6 | 6.4 | 0.00 | 0.00 | 0.00 | 72 | 1018.2 |
| 20260507084536 | 13 | 158 | 4.8 | 12.9 | 0.00 | 0.00 | 0.00 | 71 | 1018.3 |
| 20260507083516 | 12 | 158 | 3.2 | 8.0 | 0.00 | 0.00 | 0.00 | 73 | 1018.3 |
| 20260507082516 | 12 | 158 | 4.8 | 11.3 | 0.00 | 0.00 | 0.00 | 74 | 1018.1 |
| 20260507081516 | 12 | 158 | 6.4 | 19.3 | 0.00 | 0.00 | 0.00 | 75 | 1018.1 |
| 20260507080516 | 11 | 180 | 4.8 | 9.7 | 0.00 | 0.00 | 0.00 | 78 | 1018.1 |
| 20260507075516 | 10 | 158 | 3.2 | 8.0 | 0.00 | 0.00 | 0.00 | 78 | 1018.1 |
| 20260507074516 | 10 | 158 | 3.2 | 8.0 | 0.00 | 0.00 | 0.00 | 77 | 1018.1 |
| 20260507073516 | 11 | 180 | 3.2 | 14.5 | 0.00 | 0.00 | 0.00 | 76 | 1018.1 |
| 20260507072516 | 11 | 0.0 | 3.2 | 0.00 | 0.00 | 0.00 | 77 | 1018.1 | |
| 20260507071516 | 10 | 225 | 4.8 | 12.9 | 0.00 | 0.00 | 0.00 | 80 | 1018.1 |
| 20260507070536 | 9 | 0.0 | 3.2 | 0.00 | 0.00 | 0.00 | 83 | 1018.0 | |
| 20260507065536 | 8 | 203 | 1.6 | 8.0 | 0.00 | 0.00 | 0.00 | 87 | 1018.0 |
| 20260507064516 | 7 | 0.0 | 6.4 | 0.00 | 0.00 | 0.00 | 87 | 1017.9 | |
| 20260507063516 | 7 | 0.0 | 3.2 | 0.00 | 0.00 | 0.00 | 87 | 1017.9 | |
| 20260507062516 | 7 | 158 | 1.6 | 6.4 | 0.00 | 0.00 | 0.00 | 88 | 1017.8 |
| 20260507061516 | 7 | 0.0 | 0.0 | 0.00 | 0.00 | 0.00 | 89 | 1017.8 | |
| 20260507060516 | 7 | 0.0 | 0.0 | 0.00 | 0.00 | 0.00 | 89 | 1017.8 | |
| 20260507055516 | 7 | 0.0 | 0.0 | 0.00 | 0.00 | 0.00 | 90 | 1017.7 | |
| 20260507054516 | 7 | 0.0 | 0.0 | 0.00 | 0.00 | 0.00 | 90 | 1017.7 | |
| 20260507053516 | 6 | 0.0 | 0.0 | 0.00 | 0.00 | 0.00 | 90 | 1017.6 | |
| 20260507052536 | 6 | 0.0 | 0.0 | 0.00 | 0.00 | 0.00 | 91 | 1017.5 | |
| 20260507051516 | 6 | 0.0 | 0.0 | 0.00 | 0.00 | 0.00 | 92 | 1017.5 | |
| 20260507050516 | 6 | 0.0 | 0.0 | 0.00 | 0.00 | 0.00 | 92 | 1017.6 |